Pearl, MS

2:31 PM CDT on September 28, 2016 (GMT -0500)
Jackson-Evers International

Weather History for KJAN - May, 2013

Change the Weather History Date:

Monday, May 27, 2013

  Actual Average Record
Temperature  
Mean Temperature 74 °F 75 °F  
Max Temperature 87 °F 86 °F 98 °F (1953)
Min Temperature 61 °F 65 °F 46 °F (1961)
Degree Days  
Heating Degree Days 0 0  
Month to date heating degree days 52 10  
Since 1 July heating degree days 2309 2389  
Cooling Degree Days 9 10  
Month to date cooling degree days 156 196  
Year to date cooling degree days 264 314  
Growing Degree Days 24 (Base 50)    
Moisture  
Dew Point 64 °F    
Average Humidity 73    
Maximum Humidity 97    
Minimum Humidity 48    
Precipitation  
Precipitation 0.00 in 0.15 in 2.70 in (1976)
Month to date precipitation 5.17 3.81  
Year to date precipitation 32.94 23.54  
Sea Level Pressure  
Sea Level Pressure 30.08 in    
Wind  
Wind Speed 8 mph (South)    
Max Wind Speed 18 mph    
Max Gust Speed 24 mph    
Visibility 10 miles    
Events      
T = Trace of Precipitation, MM = Missing Value Source: NWS Daily Summary

Daily Weather History Graph

Daily Weather History Graph

Search for Another Location

Airport or City:

Trip Planner

Search our weather history database for the weather conditions in past years. The results will help you decide how hot, cold, wet, or windy it might be!

Date:

Astronomy

May. 27, 2013 Rise Set
Actual Time 5:55 AM CDT 7:59 PM CDT
Civil Twilight 5:28 AM CDT 8:27 PM CDT
Nautical Twilight 4:54 AM CDT 9:01 PM CDT
Astronomical Twilight 4:18 AM CDT 9:37 PM CDT
Moon 10:42 PM CDT (5/27) 8:30 AM CDT (5/27)
Length of Visible Light 14h 59m
Length of Day
14h 03m
Waning Gibbous, 91% of the Moon is Illuminated
May 27
Waning Gibbous
May 31
Last Quarter
Jun 8
New
Jun 16
First Quarter
Jun 23
Full

Hourly Weather History & Observations

Time (CDT) Temp. Heat Index Dew Point Humidity Pressure Visibility Wind Dir Wind Speed Gust Speed Precip Events Conditions
12:54 AM 66.9 °F - 62.1 °F 84% 30.11 in 10.0 mi Calm Calm - N/A   Clear
1:54 AM 64.0 °F - 61.0 °F 90% 30.11 in 9.0 mi Calm Calm - N/A   Clear
2:54 AM 62.1 °F - 60.1 °F 93% 30.11 in 9.0 mi Calm Calm - N/A   Clear
3:54 AM 62.1 °F - 59.0 °F 90% 30.11 in 10.0 mi SSE 4.6 mph - N/A   Clear
4:54 AM 62.1 °F - 60.1 °F 93% 30.11 in 10.0 mi SE 3.5 mph - N/A   Clear
5:54 AM 61.0 °F - 59.0 °F 93% 30.13 in 10.0 mi Calm Calm - N/A   Scattered Clouds
6:54 AM 66.0 °F - 62.1 °F 87% 30.14 in 10.0 mi Calm Calm - N/A   Clear
7:54 AM 71.1 °F - 64.0 °F 78% 30.14 in 10.0 mi SE 4.6 mph - N/A   Clear
8:54 AM 73.0 °F - 64.0 °F 73% 30.14 in 10.0 mi SSE 6.9 mph - N/A   Partly Cloudy
9:54 AM 75.9 °F - 66.0 °F 71% 30.13 in 10.0 mi SE 6.9 mph - N/A   Partly Cloudy
10:54 AM 78.1 °F - 68.0 °F 71% 30.12 in 10.0 mi South 9.2 mph - N/A   Partly Cloudy
11:06 AM 78.8 °F - 68.0 °F 69% 30.13 in 10.0 mi South 10.4 mph - N/A   Mostly Cloudy
11:54 AM 81.0 °F 83.3 °F 66.9 °F 62% 30.11 in 10.0 mi South 11.5 mph - N/A   Mostly Cloudy
12:54 PM 82.9 °F 85.0 °F 66.0 °F 56% 30.09 in 10.0 mi South 9.2 mph 19.6 mph N/A   Scattered Clouds
1:54 PM 84.0 °F 85.8 °F 64.9 °F 53% 30.07 in 10.0 mi SSW 16.1 mph 20.7 mph N/A   Scattered Clouds
2:54 PM 84.9 °F 86.6 °F 64.9 °F 51% 30.05 in 10.0 mi South 17.3 mph 20.7 mph N/A   Scattered Clouds
3:54 PM 86.0 °F 87.6 °F 64.9 °F 49% 30.04 in 10.0 mi SW 15.0 mph - N/A   Scattered Clouds
4:54 PM 86.0 °F 87.3 °F 64.0 °F 48% 30.02 in 10.0 mi SSW 11.5 mph 19.6 mph N/A   Scattered Clouds
5:54 PM 84.0 °F 86.5 °F 66.9 °F 56% 30.01 in 10.0 mi South 10.4 mph - N/A   Partly Cloudy
6:54 PM 82.9 °F 85.4 °F 66.9 °F 58% 29.99 in 10.0 mi South 12.7 mph - N/A   Partly Cloudy
7:54 PM 80.1 °F 82.3 °F 66.9 °F 64% 30.01 in 10.0 mi SSE 6.9 mph - N/A   Partly Cloudy
8:54 PM 75.9 °F - 66.9 °F 74% 30.02 in 10.0 mi SSE 8.1 mph - N/A   Partly Cloudy
9:54 PM 75.0 °F - 64.9 °F 71% 30.03 in 10.0 mi SSE 12.7 mph - N/A   Clear
10:54 PM 73.9 °F - 61.0 °F 64% 30.05 in 10.0 mi South 11.5 mph - N/A   Clear
11:54 PM 73.0 °F - 61.0 °F 66% 30.06 in 10.0 mi SSE 9.2 mph - N/A   Clear